Track TELSTAR 2 (A-41) now! 10-day predictions TELSTAR 2 (A-41) is classified as:
1 00573U 63013A 26251.41870726 .00000007 00000-0 23825-3 0 9999 2 00573 42.7643 256.7467 4014561 252.2261 207.9422 6.39279812591470